Location: Alfortville
(48.8058°N, 2.4204°E)
Time: 22:53:33
(UTC+00:00)

SR - Pass Details

Date: 26 April 2026
Orbit: 568 x 852 km, 66.7° (Epoch: 19 May)

Event Time Altitude Azimuth Distance (km) Brightness Sun altitude
Rises 22:10:49 0° 306° (NW) 3,362 ? -23.8°
Reaches altitude 10° 22:16:05 10° 265° (W) 2,466 ? -24.2°
Maximum altitude 22:16:40 10° 259° (W) 2,457 ? -24.2°
Drops below altitude 10° 22:17:15 10° 253° (WSW) 2,470 ? -24.3°
Enters shadow 22:19:32 - 232° (SW) 2,718 ? -24.4°
